KUIPER-00524

导读

KUIPER-00524(NORAD编号68892)是亚马逊“柯伊伯计划”卫星互联网星座的组成卫星,属于近地轨道通信卫星,旨在为全球提供宽带互联网接入服务,与SpaceX星链展开竞争。该卫星随柯伊伯计划批次发射入轨,项目计划总计部署超过3200颗卫星,目标2026年完成半数卫星部署。卫星通过星间激光链路实现高速互连,配合地面终端可提供最高百兆至四百兆的接入速率,依托亚马逊云计算基础设施,构建覆盖全球的天基互联网系统。

Basic Information
目录编号:
68892
目录名称:
KUIPER-00524
国际标识:
2026-095AE
轨道中心:
EARTH
卫星名称:
KUIPER-00524
卫星全名:
KUIPER-00524
卫星状态:
在轨 (已飞行137 天)
发射日期:
2026-04-28 UTC
国别 :
美国 (US)
星等 :
--
This satellite is enrolled in the Space Conjunction Data Service (SCDS) and the current flight risk assessment level is: No High Risk
Orbit Information
数据来源 国际轨道数据
星历时间: 2026-09-11T15:27:06+0800
22小时前
查看轨道信息
半长轴: 7007.664km
偏心率: 0.0000714
轨道倾角: 51.897°
近地点辐角 27.969°
升交点赤经 219.808°
平近点角 332.131°
近地点: 629.026km
远地点: 630.028km
周期: 97.302分钟
每日圈数: 14.799359
Detailed Information
使用方式:
暂无
2D Orbit Map
3D Orbit Map
Orbit Altitude Analysis Chart
Orbit Inclination Analysis Chart
Orbit Comprehensive Analysis Chart
View Comprehensive Chart
Conjunction Data List
Event ID Objects TCA Miss Dist (km) Collision Risk Probability Collision Risk Index (CRI) Action
CDM_260905-063003-106906-889223
2026-09-05T
06:30:18+0000
2.597 km
极远距离
1.62918E-6 低风险 0.39
CDM_260914-043805-278806-889221
2026-09-14T
04:38:37+0000
2.797 km
极远距离
8.305707E-7 极低风险 0.33
Miss Distance Evolution Trend with All Objects
Collision Probability Evolution Trend with All Objects